Home   Weather   Canberra   Past weeks
Flag for Australia

Past Weather in Canberra, Australian Capital Territory, Australia — Yesterday and Last 2 Weeks

Now
50 °F

Overcast.


Feels Like: 48 °F
Forecast: 69 / 40 °F
Wind: 5 mph from South

Location: Canberra Airport

Current Time: Oct 14, 2019 at 9:56:48 am

Latest Report: Oct 14, 2019 at 9:00 am


Visibility: N/A

Pressure: 30.07 "Hg (28.05 "Hg at 577m altitude)

Humidity: 76%

Dew Point: 43 °F

Location of CanberraLocation

Past Weather in Canberra — Graph

°F

Canberra Temperature Yesterday

Maximum temperature yesterday: 66 °F (at 3:30 pm)
Minimum temperature yesterday: 36 °F (at 6:30 am)
Average temperature yesterday: 53 °F

High & Low Weather Summary for the Past Weeks

 TemperatureHumidityPressure
High86 °F (Oct 6, 5:00 pm)100% (Sep 29, 7:00 am)30.45 "Hg (Sep 29, 7:00 am)
Low36 °F (Oct 2, 5:00 am)17% (Oct 3, 2:30 pm)29.77 "Hg (Oct 6, 4:30 pm)
Average56 °F62%30.12 "Hg
* Reported Sep 29 7:00 am — Oct 14 8:30 am, Canberra. Weather by CustomWeather, © 2019

Note: Actual official high and low records may vary slightly from our data, if they occured in-between our weather recording intervals... More about our weather records

Advertising

Canberra Weather History for the Previous 24 Hours

Scroll right to see more
 ConditionsComfort  
Time TempWeatherWind HumidityBarometerVisibility
8:30 am
Mon, Oct 14
48 °FOvercast.5 mph87%30.07 "HgN/A
8:00 am48 °FPartly sunny.5 mph87%30.07 "HgN/A
7:30 am46 °FOvercast.6 mph87%30.07 "HgN/A
7:00 am46 °FOvercast.6 mph93%30.04 "HgN/A
6:30 am45 °FSunny.5 mph100%30.04 "HgN/A
6:00 am43 °FClear.2 mph100%30.04 "HgN/A
5:30 am41 °FClear.No wind100%30.04 "HgN/A
5:00 am39 °FClear.No wind100%30.01 "HgN/A
4:30 am41 °FClear.No wind100%30.01 "HgN/A
4:00 am41 °FClear.6 mph93%30.04 "HgN/A
3:30 am43 °FClear.3 mph93%30.04 "HgN/A
3:00 am45 °FClear.5 mph87%30.04 "HgN/A
2:30 am45 °FClear.3 mph93%30.04 "HgN/A
2:00 am45 °FClear.5 mph87%30.04 "HgN/A
1:30 am46 °FClear.5 mph93%30.07 "HgN/A
1:00 am46 °FClear.6 mph87%30.07 "HgN/A
12:30 am48 °FClear.6 mph82%30.07 "HgN/A
12:00 am50 °FClear.5 mph76%30.07 "HgN/A
11:30 pm
Sun, Oct 13
52 °FClear.2 mph72%30.09 "HgN/A
11:00 pm52 °FClear.5 mph72%30.07 "HgN/A
10:30 pm54 °FClear.7 mph58%30.07 "HgN/A
10:00 pm55 °FClear.8 mph51%30.07 "HgN/A
9:30 pm55 °FClear.No wind51%30.07 "HgN/A
9:00 pm57 °FClear.7 mph48%30.07 "HgN/A
8:30 pm59 °FPassing clouds.10 mph42%30.07 "HgN/A
8:00 pm61 °FClear.10 mph39%30.07 "HgN/A
7:30 pm63 °FPassing clouds.12 mph34%30.04 "HgN/A
7:00 pm63 °FScattered clouds.10 mph34%30.04 "HgN/A
6:30 pm64 °FSunny.9 mph30%30.04 "HgN/A
6:00 pm64 °FSunny.12 mph34%30.04 "HgN/A
5:30 pm64 °FBroken clouds.14 mph34%30.04 "HgN/A
5:00 pm64 °FPartly sunny.6 mph32%30.04 "HgN/A
4:30 pm66 °FScattered clouds.6 mph30%30.04 "HgN/A
4:00 pm66 °FSunny.6 mph30%30.04 "HgN/A
3:30 pm66 °FSunny.5 mph30%30.04 "HgN/A
3:00 pm64 °FSunny.6 mph32%30.07 "HgN/A
2:30 pm64 °FSunny.7 mph34%30.07 "HgN/A
2:00 pm64 °FSunny.5 mph32%30.07 "HgN/A
1:30 pm64 °FSunny.7 mph32%30.07 "HgN/A
1:00 pm63 °FSunny.5 mph37%30.09 "HgN/A
12:30 pm61 °FSunny.5 mph42%30.09 "HgN/A
12:00 pm61 °FSunny.5 mph42%30.12 "HgN/A
11:00 am57 °FSunny.8 mph55%30.15 "HgN/A
10:30 am55 °FSunny.7 mph59%30.15 "HgN/A
10:00 am54 °FSunny.6 mph63%30.15 "HgN/A
9:30 am52 °FSunny.5 mph62%30.15 "HgN/A
9:00 am50 °FSunny.3 mph71%30.15 "HgN/A
Weather by CustomWeather, © 2019

See weather overview